Flag for U.S.A. Weather past 2 weeks in Brattleboro, Vermont, U.S.A.

48 °F


Feels Like: 45 °F
Forecast: 40 / 57 °F
Wind: 7 mph from East

Location: Keene / Dillant

Current Time: Oct 4, 2015 at 1:27:20 AM

Latest Report: Oct 4, 2015 at 12:55 AM

Visibility: 10 mi

Pressure: 30.47 "Hg

Humidity: 62%

Dew point: 36 °F

Location of BrattleboroLocation

Historic Weather in Brattleboro — Graph


Brattleboro temperature yesterday

Maximum temperature yesterday: 54 °F (at 1:55 PM)
Minimum temperature yesterday: 46 °F (at 6:35 AM)
Average temperature yesterday: 50 °F

Past Weeks' High & Low Weather Summary

High79 °F (Sep 29, 1:55 PM)94% (Sep 19, 5:15 AM)30.55 "Hg (Sep 19, 5:15 AM)
Low34 °F (Sep 27, 5:15 AM)27% (Sep 23, 4:55 PM)29.68 "Hg (Sep 30, 10:35 AM)
Average56 °F71%30.27 "Hg
* Reported Sep 19 12:15 AM — Oct 4 12:15 AM, Brattleboro, Weather by CustomWeather, © 2015

Note: Actual official high and low records may vary slightly from our data, if they occured in-between our weather recording intervals... More about our weather records


Brattleboro weather history for previous 24 hours

Time TempWeatherWind HumidityBarometerVisibility
12:15 AM
Sun, Oct 4
50 °FClear.No wind58%30.48 "Hg10 mi
11:55 PM
Sat, Oct 3
50 °FClear.3 mph58%30.48 "Hg10 mi
11:35 PM50 °FClear.6 mph58%30.49 "Hg10 mi
10:55 PM50 °FClear.7 mph58%30.48 "Hg10 mi
10:35 PM50 °FPassing clouds.6 mph58%30.48 "Hg10 mi
10:15 PM50 °FPassing clouds.5 mph58%30.48 "Hg10 mi
9:35 PM50 °FPassing clouds.7 mph58%30.48 "Hg10 mi
9:15 PM48 °FPassing clouds.No wind66%30.48 "Hg10 mi
8:55 PM48 °FMostly cloudy.No wind71%30.48 "Hg10 mi
8:35 PM48 °FOvercast.No wind71%30.48 "Hg10 mi
8:15 PM50 °FOvercast.No wind62%30.47 "Hg10 mi
7:55 PM50 °FOvercast.No wind62%30.47 "Hg10 mi
7:35 PM52 °FOvercast.No wind54%30.47 "Hg10 mi
7:15 PM52 °FOvercast.No wind54%30.47 "Hg10 mi
6:55 PM52 °FOvercast.5 mph54%30.46 "Hg10 mi
6:35 PM52 °FOvercast.3 mph54%30.46 "Hg10 mi
5:35 PM54 °FOvercast.5 mph51%30.46 "Hg10 mi
4:55 PM54 °FOvercast.6 mph47%30.45 "Hg10 mi
4:35 PM54 °FOvercast.9 mph47%30.45 "Hg10 mi
4:15 PM54 °FOvercast.12 mph47%30.44 "Hg10 mi
3:55 PM54 °FOvercast.5 mph47%30.44 "Hg10 mi
3:35 PM54 °FOvercast.8 mph47%30.43 "Hg10 mi
3:15 PM54 °FOvercast.9 mph47%30.44 "Hg10 mi
2:55 PM54 °FOvercast.10 mph47%30.44 "Hg10 mi
2:35 PM54 °FOvercast.12 mph47%30.44 "Hg10 mi
2:15 PM54 °FOvercast.9 mph47%30.45 "Hg10 mi
1:55 PM54 °FOvercast.13 mph51%30.45 "Hg10 mi
1:35 PM52 °FOvercast.6 mph54%30.45 "Hg10 mi
1:15 PM52 °FOvercast.8 mph54%30.46 "Hg10 mi
12:55 PM52 °FOvercast.12 mph50%30.46 "Hg10 mi
12:35 PM52 °FOvercast.12 mph54%30.46 "Hg10 mi
12:15 PM52 °FOvercast.14 mph54%30.46 "Hg10 mi
11:55 AM52 °FOvercast.13 mph54%30.46 "Hg10 mi
11:35 AM50 °FOvercast.14 mph54%30.46 "Hg10 mi
11:15 AM50 °FOvercast.8 mph54%30.46 "Hg10 mi
10:55 AM50 °FOvercast.14 mph54%30.45 "Hg10 mi
10:35 AM48 °FOvercast.12 mph62%30.46 "Hg10 mi
10:15 AM48 °FMostly cloudy.12 mph62%30.45 "Hg10 mi
9:55 AM48 °FOvercast.13 mph62%30.45 "Hg10 mi
9:35 AM48 °FMostly cloudy.9 mph62%30.45 "Hg10 mi
9:15 AM48 °FOvercast.8 mph58%30.45 "Hg10 mi
8:55 AM48 °FOvercast.8 mph62%30.45 "Hg10 mi
8:35 AM48 °FOvercast.7 mph58%30.44 "Hg10 mi
8:15 AM48 °FOvercast.12 mph58%30.44 "Hg10 mi
7:55 AM46 °FOvercast.8 mph66%30.44 "Hg10 mi
7:35 AM46 °FOvercast.10 mph66%30.44 "Hg10 mi
7:15 AM46 °FOvercast.7 mph66%30.43 "Hg10 mi
6:55 AM46 °FOvercast.12 mph66%30.43 "Hg10 mi
6:35 AM46 °FOvercast.9 mph66%30.42 "Hg10 mi
6:15 AM48 °FOvercast.9 mph62%30.41 "Hg10 mi
5:55 AM48 °FMostly cloudy.9 mph62%30.41 "Hg10 mi
4:35 AM48 °FOvercast.10 mph58%30.40 "Hg10 mi
4:15 AM48 °FOvercast.6 mph58%30.39 "Hg10 mi
3:55 AM48 °FOvercast.7 mph58%30.39 "Hg10 mi
Weather by CustomWeather, © 2015

See weather overviewHow to use our weather pages